Tracking 30995 objects as of 5-Jul-2025
HD Live streaming from Space Station
objects crossing your sky now

COSMOS 1275 DEB

Track COSMOS 1275 DEB now!
10-day predictions


NORAD ID: 42184
Int'l Code: 1981-053SY
Perigee: 964.7 km
Apogee: 1,105.0 km
Inclination: 83.0 °
Period: 105.7 minutes
Semi major axis: 7405 km
RCS: Unknown
Launch date: June 4, 1981
Source: Commonwealth of Independent States (former USSR) (CIS)
Launch site: PLESETSK MISSILE AND SPACE COMPLEX (PKMTR)

Note: This is SATELLITE DEBRIS
Your satellite tracking list
Your tracking list is empty




NASA's NSSDC Master Catalog

Two Line Element Set (TLE):
1 42184U 81053SY  25185.01329751  .00000183  00000-0  21276-3 0  9998
2 42184  83.0220 197.5018 0094761 334.4726  53.9820 13.62199769564154
Source of the keplerian elements: AFSPC